Location: Coupvray
(48.8929°N, 2.7967°E)
Time: 20:46:34
(UTC+00:00)

ISS - Visible Passes

Search period start: 18 September 2020 00:00
Search period end: 28 September 2020 00:00
Orbit: 419 x 420 km, 51.6° (Epoch: 19 September)

Date Brightness Start Highest point End Pass type
(mag) Time Alt. Az. Time Alt. Az. Time Alt. Az.
18 Sep -3.3 19:38:20 10° SW 19:41:13 42° SSE 19:41:13 42° SSE visible
19 Sep -2.8 18:51:18 10° SSW 18:54:17 30° SE 18:56:08 18° E visible
19 Sep -1.7 20:27:33 10° WSW 20:29:08 25° W 20:29:08 25° W visible
20 Sep -3.9 19:40:08 10° WSW 19:43:31 87° SSE 19:43:52 69° ENE visible
21 Sep -3.7 18:52:48 10° SW 18:56:08 64° SSE 18:58:29 18° ENE visible
21 Sep -1.6 20:29:43 10° W 20:31:27 27° WNW 20:31:27 27° WNW visible
22 Sep -3.4 19:42:13 10° W 19:45:34 60° N 19:45:58 55° NNE visible
23 Sep -3.6 18:54:43 10° WSW 18:58:05 73° NNW 19:00:24 19° ENE visible
23 Sep -1.3 20:31:50 10° WNW 20:33:21 24° WNW 20:33:21 24° WNW visible
24 Sep -3.7 18:07:16 10° WSW 18:10:39 88° SSE 18:14:02 10° ENE visible
24 Sep -3.2 19:44:20 10° W 19:47:38 51° N 19:47:44 50° N visible
25 Sep -3.2 18:56:48 10° W 19:00:07 53° N 19:02:04 22° ENE visible
25 Sep -1.1 20:33:50 10° WNW 20:35:01 20° WNW 20:35:01 20° WNW visible
26 Sep -3.3 18:09:15 10° W 18:12:35 60° NNW 18:15:57 10° ENE visible
26 Sep -3.1 19:46:21 10° WNW 19:49:19 52° NNW 19:49:19 52° NNW visible
27 Sep -3.2 18:58:50 10° WNW 19:02:09 51° N 19:03:37 28° ENE visible
27 Sep -0.8 20:35:43 10° WNW 20:36:34 17° WNW 20:36:34 17° WNW visible
